Location: Doverdale
(52.2833°N, 2.2000°W)
Time: 03:21:26
(UTC+00:00)

Cosmos 1980 Rocket - Pass Details

Date: 01 March 2021
Orbit: 828 x 851 km, 71.0° (Epoch: 15 April)

Event Time Altitude Azimuth Distance (km) Brightness Sun altitude
Rises 21:11:40 0° 280° (W) 3,410 6.3 -30.7°
Reaches altitude 10° 21:15:15 10° 303° (WNW) 2,481 5.5 -31.2°
Maximum altitude 21:18:31 15° 338° (NNW) 2,128 4.8 -31.6°
Drops below altitude 10° 21:21:48 10° 14° (NNE) 2,490 4.8 -32.0°
Enters shadow 21:24:45 - 33° (NNE) 3,234 5.3 -32.4°
